Flag for U.S.A. Weather past 2 weeks in Baltimore, Maryland, U.S.A.

Now
75 °F

Broken clouds.


Feels Like: 76 °F
Forecast: 68 / 85 °F
Wind: 5 mph from Southeast

Location: Baltimore-Washington International Airport

Current Time: May 29, 2015 at 10:22:01 PM

Latest Report: May 29, 2015 at 8:54 PM


Visibility: 10 mi

Pressure: 30.18 "Hg

Humidity: 74%

Dew point: 66 °F

Location of BaltimoreLocation

Historic Weather in Baltimore — Graph

°F

Baltimore temperature yesterday

Maximum temperature yesterday: 89 °F (at 12:54 PM)
Minimum temperature yesterday: 66 °F (at 4:54 AM)
Average temperature yesterday: 78 °F

Past Weeks' High & Low Weather Summary

 TemperatureHumidityPressure
High89 °F (May 28, 12:54 PM)97% (May 17, 4:54 AM)30.46 "Hg (May 17, 4:54 AM)
Low46 °F (May 23, 5:54 AM)21% (May 23, 2:54 PM)29.81 "Hg (May 19, 6:54 PM)
Average69 °F65%30.14 "Hg
* Reported May 14 8:54 PM — May 29 8:54 PM, Baltimore, Weather by CustomWeather, © 2015

Note: Actual official high and low records may vary slightly from our data, if they occured in-between our weather recording intervals... More about our weather records

Advertising

Baltimore weather history for previous 24 hours

 ConditionsComfort  
Time TempWeatherWind HumidityBarometerVisibility
8:54 PM
Fri, May 29
75 °FBroken clouds.5 mph74%30.18 "Hg10 mi
7:54 PM78 °FBroken clouds.6 mph69%30.18 "Hg10 mi
6:54 PM81 °FBroken clouds.8 mph60%30.17 "Hg10 mi
5:54 PM83 °FBroken clouds.14 mph61%30.17 "Hg10 mi
4:54 PM83 °FScattered clouds.7 mph61%30.18 "Hg7 mi
3:54 PM83 °FScattered clouds.6 mph59%30.20 "Hg10 mi
2:54 PM81 °FScattered clouds.6 mph60%30.23 "Hg10 mi
1:54 PM80 °FScattered clouds.7 mph56%30.25 "Hg10 mi
12:54 PM78 °FScattered clouds.5 mph58%30.25 "Hg10 mi
11:54 AM75 °FPartly sunny.5 mph62%30.27 "Hg10 mi
10:54 AM74 °FMostly cloudy.9 mph62%30.27 "Hg10 mi
9:54 AM73 °FMostly cloudy.14 mph62%30.28 "Hg10 mi
8:58 AM72 °FPartly sunny.16 mph61%30.28 "Hg10 mi
7:54 AM72 °FScattered clouds.14 mph61%30.26 "Hg10 mi
6:54 AM71 °FScattered clouds.9 mph63%30.25 "Hg10 mi
5:54 AM70 °FPassing clouds.8 mph68%30.23 "Hg10 mi
4:54 AM71 °FPassing clouds.9 mph66%30.22 "Hg10 mi
3:54 AM73 °FPassing clouds.9 mph74%30.20 "Hg10 mi
3:01 AM73 °FPassing clouds.6 mph89%30.21 "Hg10 mi
1:54 AM72 °FPassing clouds.3 mph87%30.20 "Hg10 mi
12:54 AM74 °FPartly cloudy.No wind82%30.20 "Hg10 mi
11:54 PM
Thu, May 28
75 °FPassing clouds.8 mph74%30.20 "Hg10 mi
10:54 PM76 °FPartly cloudy.12 mph74%30.20 "Hg10 mi
Weather by CustomWeather, © 2015

See weather overviewHow to use our weather pages